Location: Les Salelles
(44.4192°N, 4.1044°E)
Time: 16:54:30
(UTC+00:00)

Okean-O - Pass Details

Date: 20 January 2021
Orbit: 638 x 641 km, 98.2° (Epoch: 26 February)

Event Time Altitude Azimuth Distance (km) Brightness Sun altitude
Rises 18:05:58 0° 157° (SSE) 2,933 5.9 -15.8°
Reaches altitude 10° 18:08:10 10° 154° (SSE) 2,029 5.1 -16.1°
Maximum altitude 18:12:32 64° 73° (ENE) 715 2.5 -16.9°
Drops below altitude 10° 18:16:56 10° 353° (N) 2,044 5.2 -17.7°
Sets 18:19:10 0° 350° (N) 2,958 6.0 -18.1°
